Regional Weather Roundup
Issued by NWS

Home | Current Version | Previous Version | Graphics & Text | Print | Product List | Glossary On
Versions: 1 2 3 4 5 6 7 8 9 10 11 12 13 14 15 16 17 18 19 20 21 22 23 24 25 26 27 28 29 30 31 32 33 34 35 36 37 38 39 40 41 42 43 44 45 46 47 48 49 50
000
ASUS43 KLMK 200802
RWRKY
KENTUCKY REGIONAL WEATHER ROUNDUP
NATIONAL WEATHER SERVICE LOUISVILLE KY
400 AM EDT WED SEP 20 2017

NOTE "FAIR" INDICATES FEW OR NO CLOUDS BELOW 12,000 FEET
WITH NO SIGNIFICANT WEATHER AND/OR OBSTRUCTIONS TO VISIBILITY.

KYZ001>023-026-027-061>063-070>075-200900-
WESTERN AND SOUTH CENTRAL KENTUCKY

CITY           SKY/WX    TMP DP  RH WIND       PRES   REMARKS
PADUCAH        CLEAR     75  67  76 S5        29.91S
HENDERSON      CLEAR     70  68  93 S6        29.93S
OWENSBORO      CLEAR     69  67  93 SE5       29.94F
HOPKINSVILLE   CLEAR     69  68  97 CALM      29.95S
BOWLING GREEN  CLEAR     67  67 100 CALM      29.97S FOG
GLASGOW        FOG      N/A N/A N/A CALM      29.97F VSB 1
$$

KYZ024-025-028>034-038-045-046-053-200900-
NORTH CENTRAL KENTUCKY

CITY           SKY/WX    TMP DP  RH WIND       PRES   REMARKS
LOUISVILLE/SDF CLEAR     68  67  96 SE3       29.95F FOG
LOUISVILLE/LOU FOG       66  66 100 CALM      29.96F VSB 1/4
FORT KNOX      FOG       64  64 100 CALM      29.95S VSB 1/4
$$

KYZ035>037-039>044-047>052-055>060-089>105-200900-
NORTHEAST KENTUCKY

CITY           SKY/WX    TMP DP  RH WIND       PRES   REMARKS
LEXINGTON      CLEAR     66  64  93 S3        29.99S FOG
COVINGTON      PTCLDY    64  64 100 CALM      29.97S FOG
FRANKFORT      MOCLDY    63  61  93 CALM      29.97S FOG
$$

KYZ054-064>069-076>088-106>120-200900-
SOUTHEAST KENTUCKY

CITY           SKY/WX    TMP DP  RH WIND       PRES   REMARKS
JACKSON        FOG       67  66  97 CALM      30.01S VSB 1/4
LONDON         FOG       63  62  97 CALM      30.01S VSB 1/2
SOMERSET       PTCLDY    63  63 100 CALM      30.01S FOG
MIDDLESBORO    CLEAR     61  61 100 CALM      30.02F
MONTICELLO     SUNNY     60  60 100 W5        30.02S FOG
$$




USA.gov is the U.S. government's official web portal to all federal, state and local government web resources and services.